默认 日期 大小 文件数 浏览量 最新下载 xml
crossing磁力链接相关资源由用户搜索指令自动获取,结果来源于网络,本站不存储任何资料,亦不承担任何责任,请于24小时内删除,搜索到5954个磁力,显示前4000条数据,用时4ms。
    ... .Speed.cd.txt": 97, "The.Crossing.S01E09.720p.HDTV.x264-KILLERS ... .mkv": 903057933, "the.crossing.s01e09.720p.hdtv.x264-killers ...
创建时间: 2018-11-03 12:32:17 大小:863.75 MB 文件数量:7 热度:14 最近下载:2025-01-06 17:10:04
    {"RARBG.txt": 30, "The.Crossing.S01E06.LKA.720p.AMZN.WEBRip.DDP5.1.x264-NTb.mkv": 2167090051}
创建时间: 2018-11-03 13:01:52 大小:2.02 GB 文件数量:2 热度:12 最近下载:2023-04-07 16:40:07
    {"Его История2 Пересечение границы - 1 Эпизод.mp4": 435873653, "Его История2 Пересечение границы - 2 Эпизод.mp4": 309999830, "Его История2 Пересечение границы - 3 Эпизод.mp4": 388532372, "Его История2 Пересечение границы - 4 Эпизод.mp4": 356263324, "Его ...
创建时间: 2018-11-03 13:35:33 大小:2.79 GB 文件数量:8 热度:19 最近下载:2025-10-02 19:12:04
    ... -DL.ViruseProject.mkv": 3635191646, "The.Crossing.S01E02.1080p.WEB-DL.ViruseProject ... .mkv": 3744283259, "The.Crossing.S01E03.1080p.WEB-DL.ViruseProject ... .mkv": 3812223120, "The.Crossing.S01E04.1080p.WEB-DL.ViruseProject ...
创建时间: 2018-11-03 15:17:35 大小:28.45 GB 文件数量:8 热度:18 最近下载:2023-04-07 17:40:08
    {"RARBG.com.txt": 34, "crossing.lines.s02e08.hdtv.x264-sriz.mp4": 307084372, "crossing.lines.s02e08.hdtv.x264-sriz.nfo": 914}
创建时间: 2018-11-03 15:26:58 大小:292.86 MB 文件数量:3 热度:12 最近下载:2023-04-07 17:50:02
    {"RARBG.com.txt": 34, "Escaping Polygamy s02e04 Crossing Enemy Lines Part 2_720.mkv": 1475082531}
创建时间: 2018-11-03 15:37:12 大小:1.37 GB 文件数量:2 热度:29 最近下载:2025-08-03 20:26:08
    ... .WEBRip.Jaskier.avi": 567998464, "The.Crossing.S01E02.WEBRip.Jaskier.avi": 557942784 ... , "The.Crossing.S01E03.WEBRip.Jaskier.avi": 554557440 ... .WEBRip.Jaskier.avi": 559312896, "The.Crossing.S01E07.WEBRip.Jaskier.avi": 569212928}
创建时间: 2018-11-03 15:44:43 大小:3.65 GB 文件数量:7 热度:11 最近下载:2023-04-07 18:10:03
    {"RARBG.txt": 30, "The.Crossing.S01E07.HDTV.x264-KILLERS.mkv": 328007195, "the.crossing.s01e07.hdtv.x264-killers.nfo": 10866}
创建时间: 2018-11-03 15:50:25 大小:312.82 MB 文件数量:3 热度:11 最近下载:2023-04-07 18:20:06
    {"The.Crossing.s01e01.WEBRip.x264.Rus.Eng.BaibaKo.tv.avi": 616525898, "The.Crossing.s01e02.WEBRip.x264.Rus.Eng.BaibaKo.tv.avi": 606999324}
创建时间: 2018-11-03 16:32:42 大小:1.14 GB 文件数量:2 热度:11 最近下载:2023-04-07 18:40:05
    {"The.Crossing.S01E01.720p.WEBRip.Profix.Media.mkv": 1328267738, "The.Crossing.S01E02.720p.WEBRip.Profix.Media.mkv": 1314059926, "The.Crossing.S01E03.720p.WEBRip.Profix.Media.mkv": 1303831583, "The.Crossing.S01E04.720p.WEBRip.Profix.Media.mkv": 1320602985}
创建时间: 2018-11-03 16:35:53 大小:4.91 GB 文件数量:4 热度:11 最近下载:2023-04-07 18:40:02
    {"The.Crossing.S01E01.WEBRip.Profix.Media.avi": 501727916, "The.Crossing.S01E02.WEBRip.Profix.Media.avi": 480871644, "The.Crossing.S01E04.WEBRip.Profix.Media.avi": 549605922}
创建时间: 2018-11-03 16:46:11 大小:1.43 GB 文件数量:3 热度:13 最近下载:2025-01-16 22:14:02
    ... (Gears Media).avi": 548381432, "The Crossing S01E02 (2018) WEBRip (Gears Media ... ).avi": 555618490, "The Crossing S01E03 (2018) WEBRip (Gears Media ... ).avi": 536488522, "The Crossing S01E04 (2018) WEBRip (Gears Media ...
创建时间: 2018-11-03 16:52:21 大小:2.02 GB 文件数量:4 热度:16 最近下载:2025-03-06 03:27:01
    {"Crossing.Lines.S03E03.HDTV.XviD-FUM.avi": 397053392, "Torrent-Downloaded-From-extratorrent.cc.txt": 301}
创建时间: 2018-11-03 18:16:28 大小:378.66 MB 文件数量:2 热度:12 最近下载:2023-04-07 20:00:11
    {"Subs": {"2_Eng.srt": 43111, "3_Eng.srt": 51386}, "RARBG.txt": 30, "The.Crossing.S01E10.WEBRip.x264-ION10.mp4": 429557567}
创建时间: 2018-11-03 18:24:59 大小:409.75 MB 文件数量:4 热度:11 最近下载:2023-04-07 20:10:07
    {"93号仓库.url": 410, "93影视~看过都说好.url": 309, "The.Crossing.I.2014.HR-HDTV-93side.mkv": 1655776400}
创建时间: 2018-11-03 18:34:38 大小:1.54 GB 文件数量:3 热度:13 最近下载:2025-01-26 18:52:01
    {"reloaded.nfo": 3752, "rld-blcr.iso": 3143434240}
创建时间: 2018-11-03 18:42:05 大小:2.93 GB 文件数量:2 热度:17 最近下载:2025-08-05 09:53:01
    ... ": 84, "90.Day.Fiance.S06E06.Crossing.the.Line.480p.x264-mSD ... ": 587177324, "90.Day.Fiance.S06E06.Crossing.the.Line.480p.x264-mSD ...
创建时间: 2018-11-03 19:01:51 大小:561.24 MB 文件数量:7 热度:21 最近下载:2025-08-04 02:03:05
    ... Overload.mp3": 7497306, "17 - The Crossing.mp3": 13028998, "14 - Fury And ...
创建时间: 2018-11-03 20:18:56 大小:138.73 MB 文件数量:18 热度:15 最近下载:2025-02-02 00:52:01
    ... .WEBRip.Jaskier.avi": 567998464, "The.Crossing.S01E02.WEBRip.Jaskier.avi": 557942784 ... , "The.Crossing.S01E03.WEBRip.Jaskier.avi": 554557440 ... .WEBRip.Jaskier.avi": 562896896, "The.Crossing.S01E05.WEBRip.Jaskier.avi": 547596288}
创建时间: 2018-11-03 21:07:12 大小:2.6 GB 文件数量:5 热度:12 最近下载:2023-04-07 23:20:02
    {"rzr-railwayanden.iso": 9917874176, "rzr-railwayanden.nfo": 3571}
创建时间: 2018-11-03 21:30:10 大小:9.24 GB 文件数量:2 热度:18 最近下载:2025-08-15 07:08:02